User: anonymous   Login
Location: *
(35.2348°S, 91.3916°E)
Time: 10:51:52
(UTC+00:00)
Language:

Cosmos 2151 - Orbit

View from above orbital plane
View from above orbital plane
View from above satellite
View from above satellite

Ground track
Ground track

The orbit data is extracted from the following two-line orbital elements,

1 21422U 91042A   19346.82259652  .00000136  00000-0  10849-4 0  9995
2 21422  82.5008 101.5867 0015283 135.9248 224.3193 14.92090037543983
Epoch (UTC): 12 December 2019 19:44:32
Eccentricity: 0.0015283
inclination: 82.5008°
perigee height: 581 km
apogee height: 602 km
right ascension of ascending node: 101.5867°
argument of perigee: 135.9248°
revolutions per day: 14.92090037
mean anomaly at epoch: 224.3193°
orbit number at epoch: 54398

The dashed part of the orbit path shows where the satellite is in the earth's shadow,  

DLR